Location: Hicks
(37.9226°N, 89.9954°W)
Time: 08:25:21
(UTC+00:00)

Cosmos 2333 Rocket - Pass Details

Date: 14 December 2025
Orbit: 838 x 865 km, 70.8° (Epoch: 24 January)

Event Time Altitude Azimuth Distance (km) Brightness Sun altitude
Rises 23:17:04 0° 145° (SE) 3,410 5.2 -7.1°
Reaches altitude 10° 23:21:45 10° 110° (ESE) 2,489 4.2 -7.9°
Maximum altitude 23:23:05 11° 96° (E) 2,434 4.1 -8.2°
Drops below altitude 10° 23:24:26 10° 82° (E) 2,496 4.0 -8.4°
Enters shadow 23:24:48 10° 79° (ENE) 2,534 4.0 -8.5°
